Weather History for Rome Ciampino, Italy

Change the Weather History Date:

Thursday, November 15, 2012

  Actual Average Record
Temperature  
Mean Temperature 58 °F -  
Max Temperature 62 °F 58 °F 71 °F (1996)
Min Temperature 53 °F 42 °F 37 °F (2007)
Degree Days  
Heating Degree Days 8    
Growing Degree Days 8 (Base 50)    
Moisture  
Dew Point 52 °F    
Average Humidity 83    
Maximum Humidity 88    
Minimum Humidity 72    
Precipitation  
Precipitation 0.00 in 0.16 in - ()
Sea Level Pressure  
Sea Level Pressure 30.04 in    
Wind  
Wind Speed 3 mph ()    
Max Wind Speed 6 mph    
Max Gust Speed -    
Visibility 6.2 miles    
Events Rain    
Averages and records for this station are not official NWS values.
T = Trace of Precipitation, MM = Missing Value Source: Averaged Metar Reports

Daily Weather History Graph

Daily Weather History Graph

Search for Another Location

Airport:

Trip Planner

Search our weather history database for the weather conditions in past years. The results will help you decide how hot, cold, wet, or windy it might be!

Date:

Astronomy

Nov. 15, 2012 Rise Set
Actual Time 6:59 AM CET 4:48 PM CET
Civil Twilight 6:29 AM CET 5:18 PM CET
Nautical Twilight 5:55 AM CET 5:52 PM CET
Astronomical Twilight 5:22 AM CET 6:25 PM CET
Moon 8:37 AM CET (11/15) 6:20 PM CET (11/15)
Length of Visible Light 10h 49m
Length of Day
9h 49m
Waxing Crescent, 4% of the Moon is Illuminated
Nov 15
Waxing Crescent
Nov 20
First Quarter
Nov 28
Full
Dec 6
Last Quarter
Dec 13
New

Hourly Weather History & Observations

Time (CET) Temp. Dew Point Humidity Pressure Visibility Wind Dir Wind Speed Gust Speed Precip Events Conditions
12:15 AM 57.2 °F 51.8 °F 82% 30.09 in 6.2 mi NNE 3.5 mph - N/A   Scattered Clouds
12:45 AM 57.2 °F 51.8 °F 82% 30.09 in 6.2 mi North 2.3 mph - N/A   Mostly Cloudy
1:15 AM 57.2 °F 51.8 °F 82% 30.09 in 6.2 mi North 4.6 mph - N/A   Mostly Cloudy
1:45 AM 57.2 °F 51.8 °F 82% 30.09 in 6.2 mi NNE 4.6 mph - N/A   Mostly Cloudy
2:15 AM 57.2 °F 50.0 °F 77% 30.09 in 6.2 mi NNE 3.5 mph - N/A   Mostly Cloudy
2:45 AM 55.4 °F 50.0 °F 82% 30.09 in 6.2 mi NNE 3.5 mph - N/A   Mostly Cloudy
3:15 AM 55.4 °F 51.8 °F 88% 30.06 in 6.2 mi NNE 3.5 mph - N/A   Scattered Clouds
3:45 AM 55.4 °F 51.8 °F 88% 30.06 in 6.2 mi NNE 2.3 mph - N/A   Mostly Cloudy
4:15 AM 55.4 °F 50.0 °F 82% 30.06 in 6.2 mi NNE 4.6 mph - N/A   Mostly Cloudy
4:45 AM 55.4 °F 50.0 °F 82% 30.06 in 6.2 mi NNE 2.3 mph - N/A   Mostly Cloudy
5:15 AM 55.4 °F 50.0 °F 82% 30.06 in 6.2 mi NNE 3.5 mph - N/A   Mostly Cloudy
5:45 AM 55.4 °F 50.0 °F 82% 30.04 in 6.2 mi NNE 4.6 mph - N/A   Mostly Cloudy
6:15 AM 55.4 °F 51.8 °F 88% 30.04 in 6.2 mi North 5.8 mph - N/A   Mostly Cloudy
6:45 AM 55.4 °F 50.0 °F 82% 30.06 in 6.2 mi NNE 3.5 mph - N/A   Mostly Cloudy
7:15 AM 57.2 °F 51.8 °F 82% 30.04 in 6.2 mi NNE 2.3 mph - N/A   Mostly Cloudy
7:45 AM 57.2 °F 51.8 °F 82% 30.04 in 6.2 mi NNW 1.2 mph - N/A   Mostly Cloudy
8:15 AM 57.2 °F 51.8 °F 82% 30.06 in 6.2 mi NNE 3.5 mph - N/A   Mostly Cloudy
8:45 AM 55.4 °F 51.8 °F 88% 30.06 in 6.2 mi NE 4.6 mph - N/A Rain Light Rain
9:15 AM 55.4 °F 51.8 °F 88% 30.06 in 6.2 mi NNE 3.5 mph - N/A Rain Light Rain
9:45 AM 55.4 °F 51.8 °F 88% 30.06 in 6.2 mi North 4.6 mph - N/A Rain Light Rain
10:15 AM 57.2 °F 53.6 °F 88% 30.06 in 6.2 mi NNE 3.5 mph - N/A   Mostly Cloudy
10:45 AM 57.2 °F 53.6 °F 88% 30.06 in 6.2 mi NNE 4.6 mph - N/A   Mostly Cloudy
11:15 AM 59.0 °F 53.6 °F 82% 30.06 in 6.2 mi North 4.6 mph - N/A   Mostly Cloudy
11:45 AM 59.0 °F 53.6 °F 82% 30.04 in 6.2 mi North 4.6 mph - N/A   Mostly Cloudy
12:15 PM 59.0 °F 53.6 °F 82% 30.04 in 6.2 mi NNE 4.6 mph - N/A   Mostly Cloudy
12:45 PM 59.0 °F 53.6 °F 82% 30.04 in 6.2 mi NNE 3.5 mph - N/A   Mostly Cloudy
1:15 PM 59.0 °F 53.6 °F 82% 30.01 in 6.2 mi NE 3.5 mph - N/A   Mostly Cloudy
1:45 PM 60.8 °F 53.6 °F 77% 30.01 in 6.2 mi NNE 3.5 mph - N/A   Mostly Cloudy
2:15 PM 60.8 °F 55.4 °F 82% 30.01 in 6.2 mi NE 3.5 mph - N/A   Scattered Clouds
2:45 PM 62.6 °F 55.4 °F 77% 30.01 in 6.2 mi NNE 1.2 mph - N/A   Scattered Clouds
3:15 PM 62.6 °F 55.4 °F 77% 30.01 in 6.2 mi NNE 1.2 mph - N/A   Scattered Clouds
3:45 PM 62.6 °F 55.4 °F 77% 30.01 in 6.2 mi Calm Calm - N/A   Scattered Clouds
4:15 PM 62.6 °F 53.6 °F 72% 30.01 in 6.2 mi Calm Calm - N/A   Scattered Clouds
4:45 PM 60.8 °F 53.6 °F 77% 30.01 in 6.2 mi NW 1.2 mph - N/A   Scattered Clouds
5:15 PM 59.0 °F 51.8 °F 77% 30.01 in 6.2 mi NNE 2.3 mph - N/A   Scattered Clouds
5:45 PM 57.2 °F 51.8 °F 82% 30.01 in 6.2 mi NE 2.3 mph - N/A   Scattered Clouds
6:15 PM 57.2 °F 53.6 °F 88% 30.01 in 6.2 mi East 4.6 mph - N/A   Scattered Clouds
6:45 PM 55.4 °F 51.8 °F 88% 30.01 in 6.2 mi East 3.5 mph - N/A   Scattered Clouds
7:15 PM 55.4 °F 51.8 °F 88% 30.01 in 6.2 mi East 1.2 mph - N/A   Scattered Clouds
7:45 PM 55.4 °F 51.8 °F 88% 30.01 in 6.2 mi Calm Calm - N/A   Partly Cloudy
8:15 PM 53.6 °F 50.0 °F 88% 30.01 in 6.2 mi Calm Calm - N/A   Scattered Clouds
8:45 PM 53.6 °F 50.0 °F 88% 30.01 in 6.2 mi ENE 1.2 mph - N/A   Scattered Clouds
9:15 PM 53.6 °F 50.0 °F 88% 30.04 in 6.2 mi Calm Calm - N/A   Scattered Clouds
9:45 PM 53.6 °F 50.0 °F 88% 30.04 in 6.2 mi North 2.3 mph - N/A   Scattered Clouds
10:15 PM 53.6 °F 50.0 °F 88% 30.04 in 6.2 mi North 3.5 mph - N/A   Scattered Clouds
10:45 PM 53.6 °F 50.0 °F 88% 30.04 in 6.2 mi NNE 1.2 mph - N/A   Mostly Cloudy
11:15 PM 53.6 °F 50.0 °F 88% 30.04 in 6.2 mi NNE 3.5 mph - N/A   Mostly Cloudy
11:45 PM 53.6 °F 48.2 °F 82% 30.04 in 6.2 mi NNE 4.6 mph - N/A   Mostly Cloudy